[[{"header":{"parameterUnit":"m.s-1","parameterCategory":1,"la1":30.2991,"la2":30.254,"lo1":-89.0895,"lo2":-89.0444,"dy":0.0017,"dx":0.0017,"nx":28,"ny":28,"refTime":"2025-08-14T09:00:00:Z","depth":0,"parameterNumber":2,"parameterNumberName":"U-component_of_WINDS"},"data":[0,0,0,0,0,0,0,0,0,0,0,0,0,0,0,0,0,0,0,0,0,0,0,0,0,0,0,0,0,0,0,0,0,0,0,0,0,0,0,0,0,0,0,0,0,0,0,0,0,0,0,0,0,0,0,0,0,0,3.2832,3.2835,0,3.3085,3.3088,3.3091,3.3081,3.3078,3.3074,3.3071,3.3338,3.3348,3.3359,0,0,0,0,0,0,0,0,0,0,0,0,0,3.2348,3.2357,3.2832,3.2835,3.2839,3.3085,3.3088,3.3092,3.3082,3.3078,3.3073,3.3069,3.3335,3.3347,3.336,0,0,0,0,0,0,0,0,0,0,0,0,0,3.2576,3.236,3.2832,3.2863,3.2868,3.3084,3.3088,3.3093,3.3083,3.3077,3.3072,3.3067,3.3331,3.3346,3.3361,3.3565,0,0,3.3409,3.3416,0,0,0,0,0,0,0,0,3.2563,3.2593,3.2855,3.2861,3.2868,3.3046,3.3016,3.3251,3.3084,3.3002,3.3071,3.3065,3.3246,3.3268,3.3328,3.3578,3.3589,3.3411,3.342,3.3427,3.3431,0,0,0,0,0,0,0,3.2547,3.2583,3.2933,3.2859,3.2867,3.2867,3.2893,3.306,3.3151,3.3008,3.3008,3.3038,3.3248,3.3313,3.3334,3.3593,3.341,3.3424,3.3434,3.344,3.4022,3.4028,0,0,0,0,0,0,3.2523,3.2569,3.2925,3.294,3.2699,3.288,3.2909,3.2994,3.3149,3.3167,3.3042,3.3037,3.3288,3.3316,3.3343,3.3591,3.3427,3.3442,3.345,3.4016,3.4024,3.403,0,0,0,0,0,0,3.2513,3.2555,3.2914,3.2755,3.28,3.2894,3.2989,3.3002,3.3066,3.3174,3.3191,3.3091,3.3285,3.3321,3.3509,3.3601,3.3449,3.3463,3.4009,3.4019,3.4027,3.4089,0,0,0,0,0,0,3.2499,3.2551,3.2628,3.2756,3.2809,3.3074,3.2995,3.3011,3.3092,3.3087,3.3224,3.3242,3.3284,3.3486,3.3525,3.3619,3.3475,3.4001,3.4013,3.4024,3.408,3.41,3.4117,0,0,0,0,0,3.2482,3.2638,3.2632,3.2675,3.2906,3.3079,3.311,3.3152,3.31,3.3179,3.3248,3.3238,3.3584,3.3505,3.3549,3.365,3.3996,3.401,3.4023,3.4071,3.4096,3.4116,0,0,0,0,0,0,3.2521,3.2655,3.265,3.2852,3.2954,3.3077,3.3178,3.3177,3.3298,3.3288,3.3338,3.337,3.3558,3.3623,3.3533,3.3855,3.3784,3.3807,3.3805,3.3829,3.3847,3.3828,3.3488,0,0,0,0,0,3.2552,3.2679,3.279,3.2958,3.3009,3.3084,3.3162,3.3185,3.3294,3.3338,3.3421,3.3529,3.3663,3.375,3.3878,3.4089,3.4119,3.418,3.4198,3.4213,3.4232,3.4348,3.4377,3.4075,3.4075,3.4075,0,0,3.262,3.2709,3.2786,3.2968,3.3049,3.3181,3.3121,3.3264,3.3363,3.3361,3.3542,3.3607,3.3732,3.3931,3.4024,3.3991,3.4322,3.423,3.4241,3.4253,3.4365,3.4394,3.4419,3.4084,3.4083,3.4081,0,0,3.281,3.289,3.3037,3.312,3.3243,3.3292,3.3327,3.3451,3.3493,3.3675,3.3676,3.3796,3.4024,3.4113,3.4187,3.4409,3.4405,3.445,3.4547,3.466,3.4683,3.4705,3.4784,3.4812,3.4469,3.447,3.447,0,3.2879,3.3076,3.3114,3.3257,3.3337,3.3337,3.3488,3.3567,3.3728,3.3784,3.3745,3.403,3.4114,3.4334,3.4388,3.4449,3.4492,3.4435,3.4676,3.4698,3.4719,3.4795,3.4825,3.4474,3.4474,3.4473,3.4473,0,3.3155,3.3291,3.3396,3.3547,3.3639,3.3785,3.3848,3.3937,3.3952,3.4006,3.4192,3.4292,3.444,3.4494,3.4512,3.4718,3.4694,3.4665,3.4595,3.4751,3.4824,3.4853,3.4481,3.4479,3.4478,3.4477,0,0,3.3379,3.3547,3.3585,3.3653,3.3788,3.3896,3.4042,3.4184,3.426,3.437,3.4495,3.4688,3.4661,3.4746,3.4774,3.4873,3.5042,3.4832,3.4836,3.4867,3.5275,3.5295,3.5328,3.5039,3.5045,3.5049,3.5264,0,3.3583,3.384,3.3878,3.4105,3.4232,3.4234,3.4362,3.446,3.4514,3.4631,3.4692,3.4827,3.4782,3.4833,3.4931,3.5,3.5124,3.4985,3.5158,3.5164,3.5127,3.5366,3.539,3.5587,3.5293,3.5298,3.5301,0,3.3856,3.397,3.4209,3.4326,3.4381,3.4494,3.4627,3.4739,3.485,3.4883,3.4976,3.4992,3.5146,3.5068,3.5282,3.5186,3.5259,3.5304,3.5313,3.5331,3.5242,3.5392,3.5652,3.5681,3.5346,3.5343,3.5339,0,3.3995,3.4209,3.4379,3.4438,3.4578,3.4658,3.4721,3.4827,3.4909,3.5026,3.5081,3.5215,3.5289,3.5394,3.5446,3.5384,3.5657,3.5583,3.5689,3.5688,3.5747,3.5743,3.6023,3.5794,3.5793,3.5793,3.5792,0,3.422,3.4366,3.4443,3.4548,3.4712,3.4755,3.4918,3.4979,3.5073,3.5191,3.5202,3.5313,3.5374,3.5496,3.5537,3.5708,3.5742,3.5774,3.5783,3.5773,3.5769,3.5822,3.581,3.5801,3.5799,3.5797,3.5796,0,3.4404,3.4461,3.4647,3.4763,3.4796,3.4912,3.5013,3.5116,3.5168,3.5318,3.5355,3.5439,3.5582,3.5643,3.582,3.5848,3.6044,3.6043,3.6005,3.6008,3.6111,3.6101,3.6435,3.6481,3.6221,3.6224,3.6226,0,3.4544,3.4656,3.4783,3.4861,3.4925,3.5052,3.5135,3.5182,3.5269,3.5403,3.5491,3.5632,3.5749,3.5977,3.6056,3.6191,3.6194,3.6302,3.6215,3.62,3.6196,3.6188,3.62,3.6318,3.632,3.6323,3.6324,0,3.4786,3.4808,3.4926,3.5054,3.5152,3.5256,3.5358,3.5422,3.5485,3.5582,3.5726,3.5816,3.5994,3.6136,3.6276,3.6343,3.6346,3.6351,3.6383,3.6374,3.6347,3.6363,3.6049,3.6343,3.6341,3.634,3.6339,3.6338,3.4953,3.5052,3.5156,3.5287,3.5367,3.5462,3.5563,3.5627,3.5747,3.5894,3.5915,3.6069,3.6178,3.6365,3.6438,3.656,3.6534,3.658,3.6592,3.6603,3.6609,3.6326,3.6586,3.6586,3.6585,3.6585,3.6585,0,3.5196,3.5262,3.5382,3.5522,3.5625,3.5614,3.5725,3.5813,3.5948,3.6047,3.616,3.6326,3.6463,3.655,3.6689,3.6771,3.6775,3.6805,3.68,3.6816,3.6625,3.6583,3.6799,3.6799,3.6799,3.6799,3.6799,3.6799,3.5334,3.5501,3.5535,3.5742,3.5809,3.5957,3.6022,3.6109,3.6189,3.6372,3.6484,3.6539,3.6635,3.678,3.6905,3.6928,3.6979,3.7011,3.7032,3.6852,3.6829,3.6808,3.6769,3.7021,3.7021,3.7213,3.7214,3.7216]},{"header":{"parameterUnit":"m.s-1","parameterCategory":1,"la1":30.2991,"la2":30.254,"lo1":-89.0895,"lo2":-89.0444,"dy":0.0017,"dx":0.0017,"nx":28,"ny":28,"refTime":"2025-08-14T09:00:00:Z","depth":0,"parameterNumber":3,"parameterNumberName":"V-component_of_WINDS"},"data":[0,0,0,0,0,0,0,0,0,0,0,0,0,0,0,0,0,0,0,0,0,0,0,0,0,0,0,0,0,0,0,0,0,0,0,0,0,0,0,0,0,0,0,0,0,0,0,0,0,0,0,0,0,0,0,0,0,0,-0.2341,-0.2339,0,-0.2171,-0.2169,-0.2167,-0.2148,-0.215,-0.2152,-0.2154,-0.1969,-0.1963,-0.1956,0,0,0,0,0,0,0,0,0,0,0,0,0,-0.2642,-0.2636,-0.2341,-0.2339,-0.2337,-0.2172,-0.2169,-0.2167,-0.2148,-0.215,-0.2152,-0.2154,-0.1971,-0.1964,-0.1956,0,0,0,0,0,0,0,0,0,0,0,0,0,-0.2495,-0.2635,-0.2342,-0.2308,-0.2303,-0.2172,-0.2169,-0.2166,-0.2148,-0.215,-0.2153,-0.2155,-0.1974,-0.1964,-0.1955,-0.1842,0,0,-0.1925,-0.1921,0,0,0,0,0,0,0,0,-0.2504,-0.2484,-0.2315,-0.231,-0.2305,-0.2184,-0.2208,-0.2057,-0.2147,-0.2206,-0.2154,-0.2157,-0.2038,-0.2023,-0.1985,-0.1834,-0.1826,-0.1924,-0.1918,-0.1914,-0.1911,0,0,0,0,0,0,0,-0.2514,-0.2491,-0.2274,-0.2313,-0.2306,-0.2299,-0.2281,-0.2179,-0.2109,-0.2201,-0.22,-0.218,-0.2035,-0.1995,-0.1981,-0.1823,-0.1924,-0.1916,-0.191,-0.1906,-0.1572,-0.1569,0,0,0,0,0,0,-0.2532,-0.25,-0.2279,-0.2269,-0.2413,-0.2291,-0.2271,-0.222,-0.211,-0.2096,-0.2178,-0.218,-0.201,-0.1992,-0.1974,-0.1836,-0.1914,-0.1905,-0.1899,-0.1575,-0.1571,-0.1568,0,0,0,0,0,0,-0.2538,-0.2512,-0.2286,-0.2384,-0.2355,-0.2284,-0.2226,-0.2215,-0.2174,-0.2093,-0.208,-0.215,-0.2011,-0.1988,-0.1876,-0.1829,-0.19,-0.1891,-0.1578,-0.1573,-0.1569,-0.1558,0,0,0,0,0,0,-0.2547,-0.2515,-0.2473,-0.2383,-0.235,-0.2193,-0.2223,-0.221,-0.2159,-0.2159,-0.2063,-0.2049,-0.2012,-0.1891,-0.1866,-0.1817,-0.1884,-0.1582,-0.1576,-0.1571,-0.1562,-0.1554,-0.1546,0,0,0,0,0,-0.2558,-0.2474,-0.2471,-0.2444,-0.2296,-0.2191,-0.2171,-0.2132,-0.2155,-0.2111,-0.2059,-0.2052,-0.1839,-0.188,-0.1852,-0.1799,-0.1585,-0.1578,-0.1571,-0.1566,-0.1555,-0.1546,0,0,0,0,0,0,-0.2555,-0.2461,-0.2457,-0.2342,-0.2275,-0.2188,-0.2131,-0.2122,-0.2044,-0.2048,-0.2,-0.1979,-0.1869,-0.1822,-0.187,-0.1685,-0.1714,-0.1701,-0.1719,-0.1708,-0.1701,-0.1713,-0.1876,0,0,0,0,0,-0.2542,-0.2467,-0.2388,-0.2294,-0.2261,-0.2202,-0.2155,-0.2131,-0.2058,-0.2029,-0.1968,-0.1895,-0.1812,-0.1758,-0.1676,-0.1556,-0.1534,-0.1506,-0.1498,-0.1492,-0.1481,-0.1414,-0.1401,-0.1545,-0.1546,-0.1546,0,0,-0.2512,-0.2452,-0.2407,-0.2292,-0.2237,-0.2159,-0.2178,-0.2093,-0.2034,-0.2014,-0.1907,-0.186,-0.1775,-0.166,-0.1605,-0.1617,-0.1437,-0.1483,-0.1479,-0.1471,-0.1406,-0.1393,-0.138,-0.1541,-0.1542,-0.1542,0,0,-0.2418,-0.2366,-0.2283,-0.2229,-0.2147,-0.2109,-0.2089,-0.2004,-0.1973,-0.1865,-0.185,-0.1777,-0.1634,-0.1575,-0.1526,-0.1413,-0.1404,-0.1388,-0.1346,-0.1282,-0.127,-0.126,-0.1219,-0.1205,-0.1378,-0.1378,-0.1377,0,-0.2391,-0.2274,-0.224,-0.2157,-0.2106,-0.209,-0.2005,-0.1953,-0.1847,-0.1812,-0.1828,-0.165,-0.1592,-0.1462,-0.1436,-0.1396,-0.1371,-0.1398,-0.1275,-0.1264,-0.1254,-0.1215,-0.12,-0.1376,-0.1376,-0.1376,-0.1377,0,-0.2245,-0.2164,-0.2106,-0.201,-0.1953,-0.1869,-0.182,-0.1766,-0.1748,-0.1708,-0.1598,-0.1528,-0.1433,-0.1401,-0.138,-0.1268,-0.1279,-0.1286,-0.1313,-0.124,-0.1202,-0.1187,-0.1374,-0.1375,-0.1375,-0.1375,0,0,-0.2141,-0.203,-0.2009,-0.1966,-0.1876,-0.1812,-0.1727,-0.1638,-0.1593,-0.1521,-0.1447,-0.1329,-0.1336,-0.128,-0.1254,-0.1198,-0.1113,-0.1211,-0.1209,-0.1195,-0.0985,-0.098,-0.0964,-0.1108,-0.1105,-0.1102,-0.0993,0,-0.2037,-0.1889,-0.1857,-0.1728,-0.1653,-0.1638,-0.1563,-0.1499,-0.146,-0.1388,-0.1343,-0.1261,-0.1276,-0.1243,-0.1187,-0.1136,-0.107,-0.1143,-0.1036,-0.1033,-0.1058,-0.0944,-0.0938,-0.0838,-0.0978,-0.0975,-0.0973,0,-0.1895,-0.1825,-0.169,-0.1612,-0.1579,-0.1514,-0.143,-0.1363,-0.129,-0.1265,-0.1206,-0.1186,-0.1095,-0.1129,-0.1003,-0.1053,-0.1008,-0.0976,-0.0971,-0.0958,-0.0998,-0.0928,-0.0805,-0.0789,-0.095,-0.0952,-0.0953,0,-0.1833,-0.1704,-0.1608,-0.1571,-0.1478,-0.1432,-0.1391,-0.1321,-0.127,-0.1196,-0.1162,-0.1078,-0.1031,-0.0965,-0.0922,-0.0951,-0.0799,-0.083,-0.0774,-0.0776,-0.0741,-0.0744,-0.0609,-0.0714,-0.0714,-0.0715,-0.0715,0,-0.1719,-0.1637,-0.1579,-0.1519,-0.1426,-0.139,-0.1298,-0.1256,-0.1194,-0.1124,-0.1105,-0.1039,-0.0988,-0.0914,-0.088,-0.0781,-0.0759,-0.0735,-0.0727,-0.0737,-0.074,-0.0705,-0.071,-0.071,-0.0711,-0.0712,-0.0713,0,-0.1634,-0.1592,-0.1485,-0.1408,-0.1386,-0.1321,-0.1254,-0.1194,-0.1156,-0.1068,-0.1045,-0.0983,-0.0897,-0.0849,-0.0737,-0.0715,-0.0604,-0.0599,-0.063,-0.0626,-0.0573,-0.0579,-0.041,-0.0386,-0.0508,-0.0507,-0.0506,0,-0.1563,-0.15,-0.1418,-0.1372,-0.1331,-0.1256,-0.1205,-0.1167,-0.1114,-0.1028,-0.0978,-0.0892,-0.082,-0.0681,-0.0625,-0.054,-0.0533,-0.048,-0.052,-0.0532,-0.0532,-0.0536,-0.0529,-0.0472,-0.0471,-0.047,-0.047,0,-0.1443,-0.1426,-0.1356,-0.1279,-0.122,-0.1156,-0.1093,-0.1055,-0.1006,-0.0948,-0.0861,-0.0806,-0.0696,-0.0609,-0.0521,-0.0475,-0.0463,-0.0458,-0.0441,-0.0449,-0.0469,-0.0458,-0.061,-0.0461,-0.0462,-0.0463,-0.0463,-0.0464,-0.1362,-0.1306,-0.124,-0.1163,-0.1112,-0.1054,-0.0995,-0.0952,-0.088,-0.0789,-0.077,-0.0679,-0.0608,-0.0489,-0.0442,-0.0368,-0.0377,-0.0352,-0.0345,-0.034,-0.0338,-0.0483,-0.0351,-0.0351,-0.0352,-0.0352,-0.0352,0,-0.124,-0.1198,-0.1128,-0.1042,-0.0981,-0.098,-0.0911,-0.0859,-0.078,-0.0716,-0.0648,-0.0548,-0.0465,-0.0404,-0.0318,-0.0271,-0.0263,-0.0249,-0.0252,-0.0241,-0.0334,-0.0358,-0.0257,-0.0257,-0.0257,-0.0257,-0.0257,-0.0257,-0.1169,-0.1075,-0.1051,-0.0932,-0.0889,-0.0802,-0.0763,-0.0709,-0.0658,-0.055,-0.0482,-0.0444,-0.0381,-0.0292,-0.0215,-0.0199,-0.0168,-0.0154,-0.0138,-0.0225,-0.0235,-0.0244,-0.0266,-0.0148,-0.0148,-0.0051,-0.005,-0.005]}]]